Year,Month,Day,Hour,Minute,Value (Times are PST for insolation in W/m^2)
2021,11,03,00,00,0.00
2021,11,03,00,01,0.00
2021,11,03,00,02,0.00
2021,11,03,00,03,0.00
2021,11,03,00,04,0.00
2021,11,03,00,05,0.00
2021,11,03,00,06,0.00
2021,11,03,00,07,0.00
2021,11,03,00,08,0.00
2021,11,03,00,09,0.00
2021,11,03,00,10,0.00
2021,11,03,00,11,0.00
2021,11,03,00,12,0.00
2021,11,03,00,13,0.00
2021,11,03,00,14,0.00
2021,11,03,00,15,0.00
2021,11,03,00,16,0.00
2021,11,03,00,17,0.00
2021,11,03,00,18,0.00
2021,11,03,00,19,0.00
2021,11,03,00,20,0.00
2021,11,03,00,21,0.00
2021,11,03,00,22,0.00
2021,11,03,00,23,0.00
2021,11,03,00,24,0.00
2021,11,03,00,25,0.00
2021,11,03,00,26,0.00
2021,11,03,00,27,0.00
2021,11,03,00,28,0.00
2021,11,03,00,29,0.00
2021,11,03,00,30,0.00
2021,11,03,00,31,0.00
2021,11,03,00,32,0.00
2021,11,03,00,33,0.00
2021,11,03,00,34,0.00
2021,11,03,00,35,0.00
2021,11,03,00,36,0.00
2021,11,03,00,37,0.00
2021,11,03,00,38,0.00
2021,11,03,00,39,0.00
2021,11,03,00,40,0.00
2021,11,03,00,41,0.00
2021,11,03,00,42,0.00
2021,11,03,00,43,0.00
2021,11,03,00,44,0.00
2021,11,03,00,45,0.00
2021,11,03,00,46,0.00
2021,11,03,00,47,0.00
2021,11,03,00,48,0.00
2021,11,03,00,49,0.00
2021,11,03,00,50,0.00
2021,11,03,00,51,0.00
2021,11,03,00,52,0.00
2021,11,03,00,53,0.00
2021,11,03,00,54,0.00
2021,11,03,00,55,0.00
2021,11,03,00,56,0.00
2021,11,03,00,57,0.00
2021,11,03,00,58,0.00
2021,11,03,00,59,0.00
2021,11,03,01,00,0.00
2021,11,03,01,01,0.00
2021,11,03,01,02,0.00
2021,11,03,01,03,0.00
2021,11,03,01,04,0.00
2021,11,03,01,05,0.00
2021,11,03,01,06,0.00
2021,11,03,01,07,0.00
2021,11,03,01,08,0.00
2021,11,03,01,09,0.00
2021,11,03,01,10,0.00
2021,11,03,01,11,0.00
2021,11,03,01,12,0.00
2021,11,03,01,13,0.00
2021,11,03,01,14,0.00
2021,11,03,01,15,0.00
2021,11,03,01,16,0.00
2021,11,03,01,17,0.00
2021,11,03,01,18,0.00
2021,11,03,01,19,0.00
2021,11,03,01,20,0.00
2021,11,03,01,21,0.00
2021,11,03,01,22,0.00
2021,11,03,01,23,0.00
2021,11,03,01,24,0.00
2021,11,03,01,25,0.00
2021,11,03,01,26,0.00
2021,11,03,01,27,0.00
2021,11,03,01,28,0.00
2021,11,03,01,29,0.00
2021,11,03,01,30,0.00
2021,11,03,01,31,0.00
2021,11,03,01,32,0.00
2021,11,03,01,33,0.00
2021,11,03,01,34,0.00
2021,11,03,01,35,0.00
2021,11,03,01,36,0.00
2021,11,03,01,37,0.00
2021,11,03,01,38,0.00
2021,11,03,01,39,0.00
2021,11,03,01,40,0.00
2021,11,03,01,41,0.00
2021,11,03,01,42,0.00
2021,11,03,01,43,0.00
2021,11,03,01,44,0.00
2021,11,03,01,45,0.00
2021,11,03,01,46,0.00
2021,11,03,01,47,0.00
2021,11,03,01,48,0.00
2021,11,03,01,49,0.00
2021,11,03,01,50,0.00
2021,11,03,01,51,0.00
2021,11,03,01,52,0.00
2021,11,03,01,53,0.00
2021,11,03,01,54,0.00
2021,11,03,01,55,0.00
2021,11,03,01,56,0.00
2021,11,03,01,57,0.00
2021,11,03,01,58,0.00
2021,11,03,01,59,0.00
2021,11,03,02,00,0.00
2021,11,03,02,01,0.00
2021,11,03,02,02,0.00
2021,11,03,02,03,0.00
2021,11,03,02,04,0.00
2021,11,03,02,05,0.00
2021,11,03,02,06,0.00
2021,11,03,02,07,0.00
2021,11,03,02,08,0.00
2021,11,03,02,09,0.00
2021,11,03,02,10,0.00
2021,11,03,02,11,0.00
2021,11,03,02,12,0.00
2021,11,03,02,13,0.00
2021,11,03,02,14,0.00
2021,11,03,02,15,0.00
2021,11,03,02,16,0.00
2021,11,03,02,17,0.00
2021,11,03,02,18,0.00
2021,11,03,02,19,0.00
2021,11,03,02,20,0.00
2021,11,03,02,21,0.00
2021,11,03,02,22,0.00
2021,11,03,02,23,0.00
2021,11,03,02,24,0.00
2021,11,03,02,25,0.00
2021,11,03,02,26,0.00
2021,11,03,02,27,0.00
2021,11,03,02,28,0.00
2021,11,03,02,29,0.00
2021,11,03,02,30,0.00
2021,11,03,02,31,0.00
2021,11,03,02,32,0.00
2021,11,03,02,33,0.00
2021,11,03,02,34,0.00
2021,11,03,02,35,0.00
2021,11,03,02,36,0.00
2021,11,03,02,37,0.00
2021,11,03,02,38,0.00
2021,11,03,02,39,0.00
2021,11,03,02,40,0.00
2021,11,03,02,41,0.00
2021,11,03,02,42,0.00
2021,11,03,02,43,0.00
2021,11,03,02,44,0.00
2021,11,03,02,45,0.00
2021,11,03,02,46,0.00
2021,11,03,02,47,0.00
2021,11,03,02,48,0.00
2021,11,03,02,49,0.00
2021,11,03,02,50,0.00
2021,11,03,02,51,0.00
2021,11,03,02,52,0.00
2021,11,03,02,53,0.00
2021,11,03,02,54,0.00
2021,11,03,02,55,0.00
2021,11,03,02,56,0.00
2021,11,03,02,57,0.00
2021,11,03,02,58,0.00
2021,11,03,02,59,0.00
2021,11,03,03,00,0.00
2021,11,03,03,01,0.00
2021,11,03,03,02,0.00
2021,11,03,03,03,0.00
2021,11,03,03,04,0.00
2021,11,03,03,05,0.00
2021,11,03,03,06,0.00
2021,11,03,03,07,0.00
2021,11,03,03,08,0.00
2021,11,03,03,09,0.00
2021,11,03,03,10,0.00
2021,11,03,03,11,0.00
2021,11,03,03,12,0.00
2021,11,03,03,13,0.00
2021,11,03,03,14,0.00
2021,11,03,03,15,0.00
2021,11,03,03,16,0.00
2021,11,03,03,17,0.00
2021,11,03,03,18,0.00
2021,11,03,03,19,0.00
2021,11,03,03,20,0.00
2021,11,03,03,21,0.00
2021,11,03,03,22,0.00
2021,11,03,03,23,0.00
2021,11,03,03,24,0.00
2021,11,03,03,25,0.00
2021,11,03,03,26,0.00
2021,11,03,03,27,0.00
2021,11,03,03,28,0.00
2021,11,03,03,29,0.00
2021,11,03,03,30,0.00
2021,11,03,03,31,0.00
2021,11,03,03,32,0.00
2021,11,03,03,33,0.00
2021,11,03,03,34,0.00
2021,11,03,03,35,0.00
2021,11,03,03,36,0.00
2021,11,03,03,37,0.00
2021,11,03,03,38,0.00
2021,11,03,03,39,0.00
2021,11,03,03,40,0.00
2021,11,03,03,41,0.00
2021,11,03,03,42,0.00
2021,11,03,03,43,0.00
2021,11,03,03,44,0.00
2021,11,03,03,45,0.00
2021,11,03,03,46,0.00
2021,11,03,03,47,0.00
2021,11,03,03,48,0.00
2021,11,03,03,49,0.00
2021,11,03,03,50,0.00
2021,11,03,03,51,0.00
2021,11,03,03,52,0.00
2021,11,03,03,53,0.00
2021,11,03,03,54,0.00
2021,11,03,03,55,0.00
2021,11,03,03,56,0.00
2021,11,03,03,57,0.00
2021,11,03,03,58,0.00
2021,11,03,03,59,0.00
2021,11,03,04,00,0.00
2021,11,03,04,01,0.00
2021,11,03,04,02,0.00
2021,11,03,04,03,0.00
2021,11,03,04,04,0.00
2021,11,03,04,05,0.00
2021,11,03,04,06,0.00
2021,11,03,04,07,0.00
2021,11,03,04,08,0.00
2021,11,03,04,09,0.00
2021,11,03,04,10,0.00
2021,11,03,04,11,0.00
2021,11,03,04,12,0.00
2021,11,03,04,13,0.00
2021,11,03,04,14,0.00
2021,11,03,04,15,0.00
2021,11,03,04,16,0.00
2021,11,03,04,17,0.00
2021,11,03,04,18,0.00
2021,11,03,04,19,0.00
2021,11,03,04,20,0.00
2021,11,03,04,21,0.00
2021,11,03,04,22,0.00
2021,11,03,04,23,0.00
2021,11,03,04,24,0.00
2021,11,03,04,25,0.00
2021,11,03,04,26,0.00
2021,11,03,04,27,0.00
2021,11,03,04,28,0.00
2021,11,03,04,29,0.00
2021,11,03,04,30,0.00
2021,11,03,04,31,0.00
2021,11,03,04,32,0.00
2021,11,03,04,33,0.00
2021,11,03,04,34,0.00
2021,11,03,04,35,0.00
2021,11,03,04,36,0.00
2021,11,03,04,37,0.00
2021,11,03,04,38,0.00
2021,11,03,04,39,0.00
2021,11,03,04,40,0.00
2021,11,03,04,41,0.00
2021,11,03,04,42,0.00
2021,11,03,04,43,0.00
2021,11,03,04,44,0.00
2021,11,03,04,45,0.00
2021,11,03,04,46,0.00
2021,11,03,04,47,0.00
2021,11,03,04,48,0.00
2021,11,03,04,49,0.00
2021,11,03,04,50,0.00
2021,11,03,04,51,0.00
2021,11,03,04,52,0.00
2021,11,03,04,53,0.00
2021,11,03,04,54,0.00
2021,11,03,04,55,0.00
2021,11,03,04,56,0.00
2021,11,03,04,57,0.00
2021,11,03,04,58,0.00
2021,11,03,04,59,0.00
2021,11,03,05,00,0.00
2021,11,03,05,01,0.00
2021,11,03,05,02,0.00
2021,11,03,05,03,0.00
2021,11,03,05,04,0.00
2021,11,03,05,05,0.00
2021,11,03,05,06,0.00
2021,11,03,05,07,0.00
2021,11,03,05,08,0.00
2021,11,03,05,09,0.00
2021,11,03,05,10,0.00
2021,11,03,05,11,0.00
2021,11,03,05,12,0.00
2021,11,03,05,13,0.00
2021,11,03,05,14,0.00
2021,11,03,05,15,0.00
2021,11,03,05,16,0.00
2021,11,03,05,17,0.00
2021,11,03,05,18,0.00
2021,11,03,05,19,0.00
2021,11,03,05,20,0.00
2021,11,03,05,21,0.00
2021,11,03,05,22,0.00
2021,11,03,05,23,0.00
2021,11,03,05,24,0.00
2021,11,03,05,25,0.00
2021,11,03,05,26,0.00
2021,11,03,05,27,0.00
2021,11,03,05,28,0.00
2021,11,03,05,29,0.00
2021,11,03,05,30,0.00
2021,11,03,05,31,0.00
2021,11,03,05,32,0.00
2021,11,03,05,33,0.00
2021,11,03,05,34,0.00
2021,11,03,05,35,0.00
2021,11,03,05,36,0.00
2021,11,03,05,37,0.00
2021,11,03,05,38,0.00
2021,11,03,05,39,0.00
2021,11,03,05,40,0.00
2021,11,03,05,41,0.00
2021,11,03,05,42,0.00
2021,11,03,05,43,0.00
2021,11,03,05,44,0.00
2021,11,03,05,45,0.00
2021,11,03,05,46,0.00
2021,11,03,05,47,0.00
2021,11,03,05,48,0.00
2021,11,03,05,49,0.00
2021,11,03,05,50,0.00
2021,11,03,05,51,0.00
2021,11,03,05,52,0.00
2021,11,03,05,53,0.00
2021,11,03,05,54,0.00
2021,11,03,05,55,0.00
2021,11,03,05,56,0.00
2021,11,03,05,57,0.00
2021,11,03,05,58,0.00
2021,11,03,05,59,0.00
2021,11,03,06,00,0.00
2021,11,03,06,01,0.00
2021,11,03,06,02,0.00
2021,11,03,06,03,0.00
2021,11,03,06,04,0.00
2021,11,03,06,05,0.00
2021,11,03,06,06,0.00
2021,11,03,06,07,0.00
2021,11,03,06,08,0.00
2021,11,03,06,09,0.00
2021,11,03,06,10,0.00
2021,11,03,06,11,0.00
2021,11,03,06,12,0.00
2021,11,03,06,13,0.00
2021,11,03,06,14,0.00
2021,11,03,06,15,0.00
2021,11,03,06,16,0.00
2021,11,03,06,17,0.00
2021,11,03,06,18,0.00
2021,11,03,06,19,0.00
2021,11,03,06,20,0.00
2021,11,03,06,21,0.00
2021,11,03,06,22,0.00
2021,11,03,06,23,0.00
2021,11,03,06,24,0.00
2021,11,03,06,25,0.00
2021,11,03,06,26,0.00
2021,11,03,06,27,0.00
2021,11,03,06,28,0.00
2021,11,03,06,29,0.00
2021,11,03,06,30,0.00
2021,11,03,06,31,0.00
2021,11,03,06,32,0.00
2021,11,03,06,33,0.00
2021,11,03,06,34,0.00
2021,11,03,06,35,0.00
2021,11,03,06,36,0.00
2021,11,03,06,37,0.00
2021,11,03,06,38,0.00
2021,11,03,06,39,0.00
2021,11,03,06,40,0.00
2021,11,03,06,41,0.00
2021,11,03,06,42,0.00
2021,11,03,06,43,0.00
2021,11,03,06,44,0.00
2021,11,03,06,45,0.00
2021,11,03,06,46,0.00
2021,11,03,06,47,0.00
2021,11,03,06,48,0.00
2021,11,03,06,49,0.00
2021,11,03,06,50,0.00
2021,11,03,06,51,0.00
2021,11,03,06,52,0.00
2021,11,03,06,53,0.00
2021,11,03,06,54,0.00
2021,11,03,06,55,0.00
2021,11,03,06,56,0.00
2021,11,03,06,57,0.00
2021,11,03,06,58,0.00
2021,11,03,06,59,0.00
2021,11,03,07,00,0.00
2021,11,03,07,01,0.00
2021,11,03,07,02,0.00
2021,11,03,07,03,0.00
2021,11,03,07,04,0.00
2021,11,03,07,05,0.00
2021,11,03,07,06,0.00
2021,11,03,07,07,0.00
2021,11,03,07,08,0.00
2021,11,03,07,09,0.00
2021,11,03,07,10,0.00
2021,11,03,07,11,0.00
2021,11,03,07,12,0.00
2021,11,03,07,13,0.00
2021,11,03,07,14,0.00
2021,11,03,07,15,0.00
2021,11,03,07,16,0.00
2021,11,03,07,17,0.00
2021,11,03,07,18,0.00
2021,11,03,07,19,0.00
2021,11,03,07,20,0.00
2021,11,03,07,21,0.00
2021,11,03,07,22,0.00
2021,11,03,07,23,0.00
2021,11,03,07,24,0.00
2021,11,03,07,25,0.00
2021,11,03,07,26,0.00
2021,11,03,07,27,0.00
2021,11,03,07,28,0.00
2021,11,03,07,29,0.00
2021,11,03,07,30,0.00
2021,11,03,07,31,0.00
2021,11,03,07,32,0.00
2021,11,03,07,33,0.00
2021,11,03,07,34,0.00
2021,11,03,07,35,0.00
2021,11,03,07,36,0.00
2021,11,03,07,37,0.00
2021,11,03,07,38,0.00
2021,11,03,07,39,0.00
2021,11,03,07,40,0.00
2021,11,03,07,41,0.00
2021,11,03,07,42,0.00
2021,11,03,07,43,0.00
2021,11,03,07,44,0.00
2021,11,03,07,45,0.00
2021,11,03,07,46,0.00
2021,11,03,07,47,0.00
2021,11,03,07,48,0.00
2021,11,03,07,49,0.00
2021,11,03,07,50,0.00
2021,11,03,07,51,0.00
2021,11,03,07,52,0.00
2021,11,03,07,53,0.00
2021,11,03,07,54,0.00
2021,11,03,07,55,0.00
2021,11,03,07,56,0.00
2021,11,03,07,57,0.00
2021,11,03,07,58,0.00
2021,11,03,07,59,0.00
2021,11,03,08,00,0.00
2021,11,03,08,01,0.00
2021,11,03,08,02,0.00
2021,11,03,08,03,0.00
2021,11,03,08,04,0.00
2021,11,03,08,05,0.00
2021,11,03,08,06,0.00
2021,11,03,08,07,0.00
2021,11,03,08,08,0.00
2021,11,03,08,09,0.00
2021,11,03,08,10,0.00
2021,11,03,08,11,0.00
2021,11,03,08,12,0.00
2021,11,03,08,13,0.00
2021,11,03,08,14,0.00
2021,11,03,08,15,0.00
2021,11,03,08,16,3.30
2021,11,03,08,17,5.00
2021,11,03,08,18,5.00
2021,11,03,08,19,5.10
2021,11,03,08,20,7.00
2021,11,03,08,21,7.50
2021,11,03,08,22,9.70
2021,11,03,08,23,11.00
2021,11,03,08,24,11.60
2021,11,03,08,25,13.30
2021,11,03,08,26,14.00
2021,11,03,08,27,15.80
2021,11,03,08,28,16.20
2021,11,03,08,29,18.00
2021,11,03,08,30,18.00
2021,11,03,08,31,18.40
2021,11,03,08,32,19.00
2021,11,03,08,33,20.20
2021,11,03,08,34,22.50
2021,11,03,08,35,23.00
2021,11,03,08,36,24.90
2021,11,03,08,37,25.00
2021,11,03,08,38,25.20
2021,11,03,08,39,26.00
2021,11,03,08,40,26.00
2021,11,03,08,41,26.00
2021,11,03,08,42,26.00
2021,11,03,08,43,26.00
2021,11,03,08,44,27.80
2021,11,03,08,45,30.20
2021,11,03,08,46,32.20
2021,11,03,08,47,33.60
2021,11,03,08,48,35.70
2021,11,03,08,49,38.10
2021,11,03,08,50,39.60
2021,11,03,08,51,41.50
2021,11,03,08,52,43.70
2021,11,03,08,53,45.90
2021,11,03,08,54,47.20
2021,11,03,08,55,49.50
2021,11,03,08,56,51.70
2021,11,03,08,57,53.00
2021,11,03,08,58,53.60
2021,11,03,08,59,54.00
2021,11,03,09,00,55.60
2021,11,03,09,01,56.00
2021,11,03,09,02,56.00
2021,11,03,09,03,56.00
2021,11,03,09,04,56.00
2021,11,03,09,05,56.00
2021,11,03,09,06,56.00
2021,11,03,09,07,56.00
2021,11,03,09,08,56.00
2021,11,03,09,09,56.00
2021,11,03,09,10,56.00
2021,11,03,09,11,56.00
2021,11,03,09,12,56.00
2021,11,03,09,13,56.00
2021,11,03,09,14,56.80
2021,11,03,09,15,58.00
2021,11,03,09,16,58.00
2021,11,03,09,17,59.50
2021,11,03,09,18,60.00
2021,11,03,09,19,61.90
2021,11,03,09,20,63.30
2021,11,03,09,21,65.60
2021,11,03,09,22,67.00
2021,11,03,09,23,67.90
2021,11,03,09,24,69.00
2021,11,03,09,25,69.00
2021,11,03,09,26,69.70
2021,11,03,09,27,70.00
2021,11,03,09,28,72.00
2021,11,03,09,29,72.00
2021,11,03,09,30,72.00
2021,11,03,09,31,72.00
2021,11,03,09,32,72.00
2021,11,03,09,33,72.00
2021,11,03,09,34,72.00
2021,11,03,09,35,72.00
2021,11,03,09,36,72.00
2021,11,03,09,37,70.00
2021,11,03,09,38,70.00
2021,11,03,09,39,70.00
2021,11,03,09,40,70.80
2021,11,03,09,41,72.00
2021,11,03,09,42,73.30
2021,11,03,09,43,74.00
2021,11,03,09,44,75.80
2021,11,03,09,45,75.90
2021,11,03,09,46,74.00
2021,11,03,09,47,73.40
2021,11,03,09,48,72.00
2021,11,03,09,49,72.00
2021,11,03,09,50,72.00
2021,11,03,09,51,73.30
2021,11,03,09,52,74.00
2021,11,03,09,53,74.00
2021,11,03,09,54,72.00
2021,11,03,09,55,72.00
2021,11,03,09,56,72.00
2021,11,03,09,57,72.80
2021,11,03,09,58,74.00
2021,11,03,09,59,75.30
2021,11,03,10,00,76.70
2021,11,03,10,01,77.00
2021,11,03,10,02,77.00
2021,11,03,10,03,75.40
2021,11,03,10,04,71.30
2021,11,03,10,05,68.30
2021,11,03,10,06,66.10
2021,11,03,10,07,66.10
2021,11,03,10,08,68.40
2021,11,03,10,09,71.30
2021,11,03,10,10,75.60
2021,11,03,10,11,82.80
2021,11,03,10,12,86.80
2021,11,03,10,13,90.00
2021,11,03,10,14,90.00
2021,11,03,10,15,90.00
2021,11,03,10,16,88.80
2021,11,03,10,17,86.60
2021,11,03,10,18,86.00
2021,11,03,10,19,87.90
2021,11,03,10,20,90.10
2021,11,03,10,21,91.00
2021,11,03,10,22,91.70
2021,11,03,10,23,90.80
2021,11,03,10,24,85.90
2021,11,03,10,25,82.00
2021,11,03,10,26,78.10
2021,11,03,10,27,76.20
2021,11,03,10,28,74.00
2021,11,03,10,29,74.00
2021,11,03,10,30,74.00
2021,11,03,10,31,74.70
2021,11,03,10,32,76.00
2021,11,03,10,33,76.00
2021,11,03,10,34,76.00
2021,11,03,10,35,74.40
2021,11,03,10,36,72.10
2021,11,03,10,37,70.00
2021,11,03,10,38,69.50
2021,11,03,10,39,65.70
2021,11,03,10,40,61.70
2021,11,03,10,41,58.90
2021,11,03,10,42,58.00
2021,11,03,10,43,59.40
2021,11,03,10,44,61.70
2021,11,03,10,45,65.10
2021,11,03,10,46,69.10
2021,11,03,10,47,70.50
2021,11,03,10,48,73.50
2021,11,03,10,49,76.40
2021,11,03,10,50,77.00
2021,11,03,10,51,76.30
2021,11,03,10,52,71.30
2021,11,03,10,53,65.50
2021,11,03,10,54,60.00
2021,11,03,10,55,61.10
2021,11,03,10,56,67.20
2021,11,03,10,57,74.70
2021,11,03,10,58,82.70
2021,11,03,10,59,89.10
2021,11,03,11,00,92.40
2021,11,03,11,01,89.10
2021,11,03,11,02,77.60
2021,11,03,11,03,64.20
2021,11,03,11,04,60.40
2021,11,03,11,05,63.00
2021,11,03,11,06,66.80
2021,11,03,11,07,67.90
2021,11,03,11,08,65.70
2021,11,03,11,09,65.00
2021,11,03,11,10,66.80
2021,11,03,11,11,68.90
2021,11,03,11,12,68.70
2021,11,03,11,13,66.40
2021,11,03,11,14,65.00
2021,11,03,11,15,63.60
2021,11,03,11,16,59.90
2021,11,03,11,17,55.30
2021,11,03,11,18,54.00
2021,11,03,11,19,55.90
2021,11,03,11,20,57.80
2021,11,03,11,21,55.60
2021,11,03,11,22,53.10
2021,11,03,11,23,50.10
2021,11,03,11,24,47.90
2021,11,03,11,25,45.20
2021,11,03,11,26,44.00
2021,11,03,11,27,45.60
2021,11,03,11,28,49.10
2021,11,03,11,29,55.50
2021,11,03,11,30,64.80
2021,11,03,11,31,72.20
2021,11,03,11,32,76.00
2021,11,03,11,33,74.80
2021,11,03,11,34,72.70
2021,11,03,11,35,73.60
2021,11,03,11,36,76.70
2021,11,03,11,37,83.10
2021,11,03,11,38,84.00
2021,11,03,11,39,83.70
2021,11,03,11,40,82.20
2021,11,03,11,41,80.00
2021,11,03,11,42,77.80
2021,11,03,11,43,77.00
2021,11,03,11,44,77.00
2021,11,03,11,45,76.10
2021,11,03,11,46,69.90
2021,11,03,11,47,69.00
2021,11,03,11,48,70.10
2021,11,03,11,49,74.20
2021,11,03,11,50,81.10
2021,11,03,11,51,88.10
2021,11,03,11,52,95.40
2021,11,03,11,53,102.90
2021,11,03,11,54,113.60
2021,11,03,11,55,124.50
2021,11,03,11,56,131.10
2021,11,03,11,57,135.10
2021,11,03,11,58,138.00
2021,11,03,11,59,137.80
2021,11,03,12,00,133.60
2021,11,03,12,01,123.40
2021,11,03,12,02,112.60
2021,11,03,12,03,97.20
2021,11,03,12,04,88.20
2021,11,03,12,05,81.00
2021,11,03,12,06,75.10
2021,11,03,12,07,70.40
2021,11,03,12,08,67.70
2021,11,03,12,09,65.50
2021,11,03,12,10,68.30
2021,11,03,12,11,75.80
2021,11,03,12,12,87.20
2021,11,03,12,13,98.30
2021,11,03,12,14,103.80
2021,11,03,12,15,108.80
2021,11,03,12,16,112.70
2021,11,03,12,17,118.10
2021,11,03,12,18,120.80
2021,11,03,12,19,120.10
2021,11,03,12,20,111.80
2021,11,03,12,21,100.20
2021,11,03,12,22,87.80
2021,11,03,12,23,77.20
2021,11,03,12,24,69.40
2021,11,03,12,25,68.20
2021,11,03,12,26,73.80
2021,11,03,12,27,83.90
2021,11,03,12,28,96.70
2021,11,03,12,29,102.30
2021,11,03,12,30,105.40
2021,11,03,12,31,106.00
2021,11,03,12,32,101.50
2021,11,03,12,33,95.40
2021,11,03,12,34,90.90
2021,11,03,12,35,88.40
2021,11,03,12,36,92.20
2021,11,03,12,37,113.90
2021,11,03,12,38,131.50
2021,11,03,12,39,139.00
2021,11,03,12,40,137.10
2021,11,03,12,41,130.70
2021,11,03,12,42,123.30
2021,11,03,12,43,119.00
2021,11,03,12,44,114.10
2021,11,03,12,45,105.40
2021,11,03,12,46,96.70
2021,11,03,12,47,90.40
2021,11,03,12,48,87.40
2021,11,03,12,49,86.00
2021,11,03,12,50,86.00
2021,11,03,12,51,86.00
2021,11,03,12,52,87.40
2021,11,03,12,53,89.70
2021,11,03,12,54,91.10
2021,11,03,12,55,93.00
2021,11,03,12,56,92.50
2021,11,03,12,57,90.00
2021,11,03,12,58,87.20
2021,11,03,12,59,84.90
2021,11,03,13,00,82.10
2021,11,03,13,01,78.00
2021,11,03,13,02,74.30
2021,11,03,13,03,68.30
2021,11,03,13,04,60.70
2021,11,03,13,05,52.60
2021,11,03,13,06,47.20
2021,11,03,13,07,42.10
2021,11,03,13,08,39.40
2021,11,03,13,09,37.60
2021,11,03,13,10,35.40
2021,11,03,13,11,35.00
2021,11,03,13,12,39.20
2021,11,03,13,13,40.40
2021,11,03,13,14,43.30
2021,11,03,13,15,47.20
2021,11,03,13,16,51.10
2021,11,03,13,17,55.10
2021,11,03,13,18,56.00
2021,11,03,13,19,57.70
2021,11,03,13,20,60.10
2021,11,03,13,21,62.50
2021,11,03,13,22,66.10
2021,11,03,13,23,69.40
2021,11,03,13,24,72.00
2021,11,03,13,25,75.70
2021,11,03,13,26,79.90
2021,11,03,13,27,83.30
2021,11,03,13,28,87.60
2021,11,03,13,29,93.60
2021,11,03,13,30,99.50
2021,11,03,13,31,107.70
2021,11,03,13,32,114.30
2021,11,03,13,33,116.00
2021,11,03,13,34,114.20
2021,11,03,13,35,111.60
2021,11,03,13,36,109.30
2021,11,03,13,37,107.20
2021,11,03,13,38,109.60
2021,11,03,13,39,113.80
2021,11,03,13,40,119.30
2021,11,03,13,41,129.40
2021,11,03,13,42,138.90
2021,11,03,13,43,144.70
2021,11,03,13,44,142.80
2021,11,03,13,45,134.90
2021,11,03,13,46,119.40
2021,11,03,13,47,108.20
2021,11,03,13,48,104.90
2021,11,03,13,49,108.70
2021,11,03,13,50,111.00
2021,11,03,13,51,111.00
2021,11,03,13,52,111.00
2021,11,03,13,53,111.00
2021,11,03,13,54,109.20
2021,11,03,13,55,107.00
2021,11,03,13,56,106.60
2021,11,03,13,57,104.00
2021,11,03,13,58,99.10
2021,11,03,13,59,91.30
2021,11,03,14,00,82.00
2021,11,03,14,01,70.20
2021,11,03,14,02,58.90
2021,11,03,14,03,53.80
2021,11,03,14,04,50.30
2021,11,03,14,05,46.70
2021,11,03,14,06,44.40
2021,11,03,14,07,41.10
2021,11,03,14,08,39.40
2021,11,03,14,09,39.00
2021,11,03,14,10,39.00
2021,11,03,14,11,39.00
2021,11,03,14,12,37.00
2021,11,03,14,13,37.00
2021,11,03,14,14,37.00
2021,11,03,14,15,37.00
2021,11,03,14,16,38.00
2021,11,03,14,17,39.00
2021,11,03,14,18,39.70
2021,11,03,14,19,40.00
2021,11,03,14,20,41.80
2021,11,03,14,21,42.20
2021,11,03,14,22,44.50
2021,11,03,14,23,46.40
2021,11,03,14,24,47.00
2021,11,03,14,25,46.40
2021,11,03,14,26,44.70
2021,11,03,14,27,45.60
2021,11,03,14,28,48.50
2021,11,03,14,29,53.30
2021,11,03,14,30,56.30
2021,11,03,14,31,59.10
2021,11,03,14,32,62.40
2021,11,03,14,33,63.00
2021,11,03,14,34,64.30
2021,11,03,14,35,65.00
2021,11,03,14,36,63.30
2021,11,03,14,37,62.10
2021,11,03,14,38,61.80
2021,11,03,14,39,60.00
2021,11,03,14,40,60.00
2021,11,03,14,41,60.90
2021,11,03,14,42,62.60
2021,11,03,14,43,63.00
2021,11,03,14,44,63.00
2021,11,03,14,45,62.20
2021,11,03,14,46,59.90
2021,11,03,14,47,55.70
2021,11,03,14,48,53.70
2021,11,03,14,49,53.00
2021,11,03,14,50,53.00
2021,11,03,14,51,51.80
2021,11,03,14,52,51.00
2021,11,03,14,53,49.40
2021,11,03,14,54,47.30
2021,11,03,14,55,43.60
2021,11,03,14,56,39.40
2021,11,03,14,57,35.70
2021,11,03,14,58,32.60
2021,11,03,14,59,30.90
2021,11,03,15,00,27.50
2021,11,03,15,01,26.00
2021,11,03,15,02,25.20
2021,11,03,15,03,25.00
2021,11,03,15,04,25.00
2021,11,03,15,05,25.00
2021,11,03,15,06,25.00
2021,11,03,15,07,25.00
2021,11,03,15,08,25.00
2021,11,03,15,09,23.70
2021,11,03,15,10,21.50
2021,11,03,15,11,21.00
2021,11,03,15,12,19.10
2021,11,03,15,13,19.00
2021,11,03,15,14,19.00
2021,11,03,15,15,19.00
2021,11,03,15,16,20.00
2021,11,03,15,17,21.00
2021,11,03,15,18,24.60
2021,11,03,15,19,27.70
2021,11,03,15,20,31.80
2021,11,03,15,21,32.10
2021,11,03,15,22,32.80
2021,11,03,15,23,31.40
2021,11,03,15,24,30.00
2021,11,03,15,25,30.00
2021,11,03,15,26,30.00
2021,11,03,15,27,28.40
2021,11,03,15,28,26.20
2021,11,03,15,29,26.00
2021,11,03,15,30,26.30
2021,11,03,15,31,28.00
2021,11,03,15,32,28.00
2021,11,03,15,33,28.00
2021,11,03,15,34,26.80
2021,11,03,15,35,26.00
2021,11,03,15,36,25.20
2021,11,03,15,37,23.20
2021,11,03,15,38,22.80
2021,11,03,15,39,21.00
2021,11,03,15,40,21.00
2021,11,03,15,41,21.70
2021,11,03,15,42,23.00
2021,11,03,15,43,24.30
2021,11,03,15,44,25.00
2021,11,03,15,45,25.00
2021,11,03,15,46,23.20
2021,11,03,15,47,23.20
2021,11,03,15,48,25.00
2021,11,03,15,49,25.00
2021,11,03,15,50,24.10
2021,11,03,15,51,24.20
2021,11,03,15,52,25.00
2021,11,03,15,53,25.80
2021,11,03,15,54,27.80
2021,11,03,15,55,29.90
2021,11,03,15,56,29.70
2021,11,03,15,57,28.00
2021,11,03,15,58,27.30
2021,11,03,15,59,26.00
2021,11,03,16,00,27.20
2021,11,03,16,01,28.00
2021,11,03,16,02,29.60
2021,11,03,16,03,30.10
2021,11,03,16,04,32.10
2021,11,03,16,05,33.00
2021,11,03,16,06,33.00
2021,11,03,16,07,32.60
2021,11,03,16,08,30.90
2021,11,03,16,09,28.70
2021,11,03,16,10,28.00
2021,11,03,16,11,26.30
2021,11,03,16,12,27.90
2021,11,03,16,13,28.00
2021,11,03,16,14,27.40
2021,11,03,16,15,26.00
2021,11,03,16,16,26.00
2021,11,03,16,17,26.00
2021,11,03,16,18,26.00
2021,11,03,16,19,25.20
2021,11,03,16,20,23.20
2021,11,03,16,21,20.70
2021,11,03,16,22,17.60
2021,11,03,16,23,15.40
2021,11,03,16,24,13.20
2021,11,03,16,25,12.00
2021,11,03,16,26,11.40
2021,11,03,16,27,11.00
2021,11,03,16,28,11.80
2021,11,03,16,29,12.00
2021,11,03,16,30,12.30
2021,11,03,16,31,14.00
2021,11,03,16,32,14.00
2021,11,03,16,33,14.00
2021,11,03,16,34,12.90
2021,11,03,16,35,12.00
2021,11,03,16,36,12.00
2021,11,03,16,37,11.20
2021,11,03,16,38,10.80
2021,11,03,16,39,9.00
2021,11,03,16,40,8.50
2021,11,03,16,41,7.00
2021,11,03,16,42,6.10
2021,11,03,16,43,5.00
2021,11,03,16,44,5.00
2021,11,03,16,45,5.00
2021,11,03,16,46,6.80
2021,11,03,16,47,7.00
2021,11,03,16,48,7.00
2021,11,03,16,49,7.60
2021,11,03,16,50,9.00
2021,11,03,16,51,10.10
2021,11,03,16,52,11.00
2021,11,03,16,53,11.80
2021,11,03,16,54,13.80
2021,11,03,16,55,14.00
2021,11,03,16,56,14.00
2021,11,03,16,57,13.50
2021,11,03,16,58,11.60
2021,11,03,16,59,10.00
2021,11,03,17,00,7.80
2021,11,03,17,01,7.00
2021,11,03,17,02,7.00
2021,11,03,17,03,5.20
2021,11,03,17,04,5.20
2021,11,03,17,05,7.00
2021,11,03,17,06,7.00
2021,11,03,17,07,7.00
2021,11,03,17,08,7.00
2021,11,03,17,09,8.30
2021,11,03,17,10,9.00
2021,11,03,17,11,9.00
2021,11,03,17,12,9.00
2021,11,03,17,13,8.70
2021,11,03,17,14,7.00
2021,11,03,17,15,7.00
2021,11,03,17,16,7.00
2021,11,03,17,17,7.00
2021,11,03,17,18,7.00
2021,11,03,17,19,7.00
2021,11,03,17,20,5.20
2021,11,03,17,21,5.00
2021,11,03,17,22,5.00
2021,11,03,17,23,5.00
2021,11,03,17,24,3.20
2021,11,03,17,25,0.00
2021,11,03,17,26,0.00
2021,11,03,17,27,0.00
2021,11,03,17,28,0.00
2021,11,03,17,29,0.00
2021,11,03,17,30,0.00
2021,11,03,17,31,0.00
2021,11,03,17,32,0.00
2021,11,03,17,33,0.00
2021,11,03,17,34,0.00
2021,11,03,17,35,0.00
2021,11,03,17,36,0.00
2021,11,03,17,37,0.00
2021,11,03,17,38,0.00
2021,11,03,17,39,0.00
2021,11,03,17,40,0.00
2021,11,03,17,41,0.00